Погода в Аосте

Италия     45°44′01″N   7°18′49″E
темп.,
°C
ветер,
м/с
пор.,
м/с
влажн.,
%
обл.,
%
осадки,
мм/ч
давл.,
гПа
погр.,
м
12 мая, ср
ср1223:00+1зсз3595100 0.6 1014163
02:00−1з359351 0.7 1015138
05:00−2з349212 0.1 101581
08:00+2сз237717 0.1 1013393
11:00+6зсз33568 0.0 10091073
14:00+8сз3350100 0.1 10071577
17:00+8сз335228 0.1 10071433
20:00+4зсз346923 0.1 1008164
13 мая, чт
чт1323:00−1з33845 0.0 101365
02:00−2зсз23784 0.0 101372
05:00−2з22796 0.0 101264
08:00+2зсз23677 0.0 1009435
11:00+7зсз325278 0.1 10051558
14:00+6зсз445897 0.7 10051341
17:00+6зсз345464 0.3 10051437
20:00+3зсз35666 0.5 1007332
14 мая, пт
пт1423:00−2зсз33761 0.0 101262
02:00−3зсз33794 0.0 101373
05:00−3зсз22783 0.0 101258
08:00+1зсз22579 0.0 1010380
11:00+6сз2242100 0.0 10061715
14:00+7ссз3247100 0.6 10051761
17:00+6с2258100 1.6 10061252
20:00+3з238596 3.4 1009168
15 мая, сб
сб1523:000з249599 0.8 1013203
02:00−3зсз33854 0.1 101662
05:00−3зсз33849 0.0 101658
08:00+1зсз2371100 0.0 1013325
11:00+6зсз2249100 0.0 10091135
14:00+7зсз3347100 0.0 10091421
17:00+4зсз2376100 0.7 1012653
20:00+2з1398100 2.7 1013273
16 мая, вс
вс1623:00+2з2399100 2.9 1015217
02:00+2з2398100 6.1 1014198
05:00+2з3598100 2.8 1014201
08:00+4з349683 3.3 1013235
11:00+6з359044 0.8 1013573
14:00+9з457598 0.9 1012871
17:00+7з3388100 1.4 1012445
20:00+4зсз2397100 5.1 1013213